[Iaude] MPEC T89: 2021 UO [a=1.20,e=0.65,i=28.8,H=20.43]

mpec at marsden.cfa.harvard.edu mpec at marsden.cfa.harvard.edu
Sat Oct 7 09:22:38 EDT 2023


M.P.E.C. 2023-T89                               Issued 2023 October 7, 13:21 UT

     The Minor Planet Electronic Circulars contain information on unusual
         minor planets, routine data on comets and natural satellites,
         and occasional editorial announcements.  They are published
    on behalf of Division F of the International Astronomical Union by the
          Minor Planet Center, Smithsonian Astrophysical Observatory,
                          Cambridge, MA 02138, U.S.A.
			  
             Prepared using the Tamkin Foundation Computer Network

                              MPC at CFA.HARVARD.EDU
            URL https://www.minorplanetcenter.net/    ISSN 1523-6714

                                    2021 UO                                     


                           Revision to MPEC 2021-U52                            

Additional Observations:
     K21U00O ;C2016 12 05.28830 04 21 19.72 -18 31 14.6          23.3 rVET089W84
     K21U00O ;C2016 12 05.28960 04 21 19.54 -18 31 15.1          23.2 gVET089W84
     K21U00O  C2017 11 07.21629 21 46 18.426-14 52 27.98         20.8 wLET089F51
     K21U00O  C2017 11 07.23980 21 46 29.081-14 52 44.97         21.1 wLET089F51

Observer details:
F51 Pan-STARRS 1, Haleakala.  Observers J. Bulger, T. Lowe, A. Schultz, M.
    Willman.  Measurers K. Chambers, S. Chastel, L. Denneau, H. Flewelling, M.
    Huber, E. Lilly, E. Magnier, R. Wainscoat, C. Waters, R. Weryk.  1.8-m
    Ritchey-Chretien + CCD.
W84 Cerro Tololo-DECam.  Observer .  Measurer P. VanWylen.  4.0-m reflector +
    CCD.

First and last observations above in comparison with prediction:
Residuals in seconds of arc (or two decimals in degrees), reference and Delta-T
161205 W84 0.01+ 0.00+    171107 F51 0.07+ 0.00+    E2021-XI1   -0.02 days

Orbital elements:
2021 UO                                                  Earth MOID = 0.0567 AU
Epoch 2023 Sept. 13.0 TT = JDT 2460200.5                Veres                   
M 201.93227              (2000.0)            P               Q                  
n   0.74619781     Peri.   54.80002     -0.25980368     +0.94803384             
a   1.2038344      Node   202.41589     -0.96560611     -0.25301009             
e   0.6462917      Incl.   28.79354     +0.01033904     +0.19291900             
P   1.32           H   20.43          G   0.15           U   1                  
Residuals in seconds of arc
161205 W84  0.0   0.1+    211020 F65  0.1+  0.0     211026 T05  0.2-  0.2+
161205 W84  0.1-  0.0     211020 F65  0.2+  0.1+    211026 W94  0.7+  0.2-
171107 F51  0.1-  0.2+    211020 F65  0.3+  0.1+    211026 W94  0.7+  0.3-
171107 F51  0.2+  0.1+    211020 E23  0.1-  0.1-    211026 W94  0.5+  0.3+
211019 T05  0.2-  0.2+    211020 E23  0.1-  0.8+    211027 T05  0.0   0.4+
211019 T05  0.0   0.3-    211020 E23  0.0   0.4+    211027 T05  0.3-  0.3+
211019 T05  0.4-  0.0     211020 118  0.2-  0.3+    211027 T05  0.7-  0.1-
211019 T05 (1.9+  2.4-)   211020 C82  0.5-  0.1+    211027 T05  0.2-  0.3+
211019 Q62  0.7+  0.3-    211020 118  0.0   0.1-    211027 T05  0.3+  0.7+
211019 Q62  0.0   0.5-    211020 C82  0.4-  0.3+    211028 807  0.3+  0.2-
211019 900  0.9-  0.1+    211020 C82  0.4+  0.3-    211028 807  0.0   0.1-
211019 900  0.0   0.3+    211020 C82  0.5+  0.0     211028 807  0.1-  0.3-
211019 A17  0.2+  0.3-    211020 118  0.1+  0.2-    211028 F52  0.0   0.1+
211019 A17  0.3-  0.1-    211020 C82  0.5-  0.6+    211028 F52  0.0   0.1+
211019 A17  0.5+  0.4-    211020 C82  0.1+  0.2+    211028 F52  0.0   0.0
211019 K74  0.1+  0.6-    211020 C82  0.1+  0.7-    211028 F52  0.0   0.0
211019 A17  0.1-  0.1-    211021 E23  0.1-  0.1+    211030 U68  0.0   0.3-
211019 I93  0.0   0.2+    211021 E23  0.1-  0.3+    211030 U68  0.1+  0.3-
211019 I93  0.2+  0.1+    211021 E23  0.2+  0.6-    211030 U68  0.3-  0.6-
211019 I93  0.1-  0.1+    211021 Z80  0.7-  0.8+    211030 U68  0.0   0.1-
211019 K74  0.2+  0.5-    211021 Z80  0.0   1.1+    211101 I52  0.3-  0.0
211019 G02  0.6+  0.4-    211021 Z80  0.1-  0.8+    211101 I52  0.1-  0.1-
211019 K74  0.3-  0.4-    211022 T05  0.3-  0.3-    211101 I52  0.3+  0.2-
211019 Z41  0.1+  0.1+    211022 T05  0.2-  0.1-    211101 I52  0.2-  0.2-
211019 Z41  0.0   0.2+    211022 T05  0.1-  0.0     211101 G96  0.0   0.2+
211019 Z41  0.2+  0.0     211022 T05  0.4-  0.2+    211101 G96  0.1+  0.2+
211019 Z41  0.1+  0.2+    211022 203  0.1+  0.3-    211101 G96  0.0   0.1-
211019 G02  0.3+  0.2-    211022 203  0.3-  0.4+    211101 G96  0.0   0.1+
211019 Z41  0.1+  0.1+    211023 T05  0.3+  0.4+    211101 703  0.9+  0.1-
211019 G02  0.3+  0.1-    211023 T05  0.0   0.2+    211101 703  0.1-  0.5+
211019 Z41  0.2+  0.0     211023 T05  0.0   0.3+    211101 703  0.2-  0.6+
211019 Z41  0.0   0.1-    211023 T05  0.1+  0.4-    211101 703  0.4-  0.8+
211019 233  0.1+  0.2+    211023 L18  0.5-  0.1-    211106 F52  0.1+  0.0
211019 233  0.2+  0.0     211023 L18  0.1-  0.7-    211106 F52  0.0   0.0
211019 233  0.4-  0.2+    211023 L18  1.2+  0.3-    211106 F52  0.1+  0.0
211019 C95  0.5+  1.0-    211024 807 (0.1+  0.9-)   211106 F52  0.0   0.0
211019 C95  0.0   0.4-    211024 807  0.1-  0.3-    211106 474  0.1-  0.0
211019 C95  0.3-  0.4-    211024 807  0.1+  0.3-    211106 474  0.2+  0.1+
211019 104  0.1-  0.0     211024 T08  0.4-  0.1+    211106 474  0.2-  0.1+
211019 104  0.2-  0.2+    211024 T08  0.2+  0.7-    211107 807  0.3-  0.1-
211019 104  0.0   0.2+    211024 T08  0.1-  0.7+    211107 807  0.0   0.3+
211019 104  0.2-  0.1+    211024 T08  0.3+  0.3+    211107 807 (0.5-  1.2-)
211019 L01  0.3-  0.3-    211025 807 (0.5-  1.5-)   211107 691  0.2+  0.1+
211019 L01  0.0   0.2+    211025 807  0.5-  0.1-    211107 691  0.1-  0.0
211019 L01  0.2+  0.3+    211025 807  0.5-  0.0     211107 691  0.1-  0.0
211019 204  0.1-  0.1+    211025 703  0.5+  0.2+    211111 691  0.1+  0.6-
211019 L01  0.5+  0.3+    211025 703  0.1+  0.1+    211111 691  0.1-  0.2+
211019 204  0.1-  0.1+    211025 703  0.3-  0.0     211111 691  0.2-  0.0
211019 204  0.2+  0.1+    211025 703  0.1-  0.2-    211125 807  0.0   0.2-
211019 W34  0.0   0.2-    211026 807  0.1-  0.3-    211125 807  0.0   0.2-
211019 W34  0.0   0.1-    211026 807  0.0   0.4-    211125 807  0.1+  0.2-
211020 W46  0.1-  0.2+    211026 807  0.1-  0.0     211126 F52  0.1-  0.1+
211020 W34  0.2-  0.7+    211026 703  0.1-  0.1-    211126 F52  0.2+  0.2+
211020 W46  0.6-  0.3+    211026 703  0.9+  0.5-    211126 F52  0.0   0.0
211020 W46  0.3+  0.1+    211026 703  0.7+  1.1+    211126 F52  0.3-  0.2-
211020 695  0.0   0.1+    211026 703  0.7+  0.9+    211202 807  0.3+  0.3-
211020 695  0.0   0.1+    211026 T05  0.4+  0.3+    211202 807  0.3+  0.1-
211020 695  0.0   0.0     211026 T05  0.0   0.5+    211202 807 (0.8+  0.2-)
211020 F65  0.1+  0.0     211026 T05  0.0   0.4-

Ephemeris:
2021 UO                  a,e,i = 1.20, 0.65, 29                  q = 0.4258
Date    TT    R. A. (2000) Decl.     Delta      r    Elong.  Phase     V
2023 09 07    07 03 00.3 +01 28 43   2.2809  1.9685    59.4    26.1    24.9
...
2023 09 22    07 25 29.1 -01 41 48   2.1005  1.9458    67.2    28.4    24.7
...
2023 09 30    07 36 45.9 -03 38 58   1.9980  1.9292    71.4    29.5    24.6
...
2023 10 06    07 44 51.7 -05 14 27   1.9190  1.9145    74.6    30.2    24.6
2023 10 07    07 46 10.7 -05 31 02   1.9057  1.9119    75.2    30.4    24.5
2023 10 08    07 47 29.1 -05 47 49   1.8923  1.9092    75.7    30.5    24.5
...
2023 10 14    07 55 06.1 -07 32 37   1.8114  1.8921    78.9    31.2    24.4
...
2023 10 22    08 04 36.5 -10 03 49   1.7021  1.8664    83.1    32.0    24.3
...
2023 11 06    08 20 01.9 -15 25 29   1.4961  1.8089    91.0    33.2    24.0

A. U. Tomatic                (C) Copyright 2023 MPC           M.P.E.C. 2023-T89





More information about the Iaude mailing list